SCP
0 0 0 0 0 0 0 0 0 0 0 0 0 1 1 1 1 1 2 1 1 1 1 1 1 1 1 2 2 2 1 1 1 2 1 0 1 1 1 1 1 1 -0
0 0 0 0 1 1 1 1 1 0 0 0 0 0 1 1 1 0 0 0 1 1 1 1 2 2 2 2 2 2 2 2 2 2 2 0 0 0 1 1 1 1 0
0 0 0 0 0 1 1 1 1 0 0 0 0 0 1 1 0 0 0 0 0 0 0 0 1 1 1 0 1 1 1 1 1 1 1 1 0 0 0 0 0 0 1
0 0 0 0 1 1 1 1 1 1 1 1 1 2 1 0 0 0 -0 0 0 0 0 0 0 0 0 0 1 1 1 1 1 1 1 1 2 2 1 0 0 0 0
0 0 0 0 1 1 1 1 1 1 1 1 0 0 0 0 -0 0 0 0 0 0 0 0 0 0 0 0 0 0 0 1 0 1 1 1 1 1 1 0 0 0 0
0 0 0 0 0 0 0 0 0 0 0 0 0 0 0 0 0 0 0 0 0 0 0 0 0 0 0 0 0 0 0 0 0 1 1 1 1 1 1 1 0 1 0
0 0 0 0 0 0 0 0 0 0 0 0 0 -0 -0 0 0 0 0 0 0 0 0 0 0 0 0 0 0 0 0 0 0 0 0 0 0 1 1 1 1 1 1
0 0 0 0 0 0 0 0 0 0 0 0 0 0 0 0 0 0 0 0 0 0 0 0 0 0 0 0 0 0 0 0 0 0 0 0 0 0 0 1 1 1 1
0 0 0 1 0 0 0 0 0 0 0 0 0 0 0 0 0 0 0 0 0 0 0 0 0 0 0 0 0 0 0 0 0 0 0 0 0 0 0 0 1 1 1
0 0 0 0 0 0 0 0 0 0 0 0 0 0 0 0 0 0 0 0 0 0 0 0 0 0 0 0 0 0 0 0 0 0 0 0 0 0 0 0 0 0 0
0 0 0 0 0 0 0 0 0 0 0 0 0 0 0 0 0 0 0 0 0 0 0 0 0 0 0 0 0 0 0 0 0 0 0 0 0 0 0 0 0 0 0
0 0 0 0 0 0 0 0 0 0 0 0 0 0 0 0 0 0 0 0 0 0 0 0 0 0 0 0 0 0 0 0 0 0 0 0 0 0 0 0 0 0 0
0 0 0 0 0 0 0 0 0 0 0 0 0 0 0 0 0 0 0 0 0 0 0 0 0 0 0 0 0 0 0 0 0 0 0 0 0 0 0 0 0 0 0
0 0 0 0 0 0 0 0 0 0 0 0 0 0 0 0 0 0 0 0 0 0 0 0 0 0 0 0 0 0 0 0 0 0 0 0 0 0 0 0 0 0 0
0 0 0 0 0 0 0 0 0 0 0 0 0 0 0 0 0 0 0 0 0 0 0 0 0 0 0 0 0 0 0 0 0 0 0 0 0 0 0 0 0 0 0
0 0 0 0 0 0 0 0 0 0 0 0 0 0 0 0 0 0 0 0 0 0 0 0 0 0 0 0 0 0 0 0 0 0 0 0 0 0 0 0 0 0 0
0 0 0 0 0 0 0 0 0 0 0 0 0 0 0 0 0 0 0 0 0 0 0 0 0 0 0 0 0 0 0 0 0 0 0 0 0 0 0 0 0 0 0
-0 -0 0 0 0 0 0 0 0 0 0 0 0 0 0 0 0 0 0 0 0 0 0 0 0 0 0 0 0 0 0 0 0 0 0 0 0 0 0 0 0 0 0
0 0 0 0 0 0 0 0 0 0 0 0 0 0 0 0 0 0 0 0 0 0 0 0 0 0 0 0 0 0 0 0 0 0 0 0 0 0 0 0 0 0 0
0 0 0 0 0 0 0 0 0 0 0 0 0 0 0 0 0 0 0 0 0 0 0 0 0 0 0 0 0 0 0 0 0 0 0 0 0 0 0 0 0 0 0
0 0 0 0 0 0 0 0 0 0 0 0 0 0 0 0 0 0 0 0 0 0 0 0 0 0 0 0 0 0 0 0 0 0 0 0 0 0 0 0 0 0 0
0 0 0 0 0 0 0 0 0 0 0 0 0 0 0 0 0 0 0 0 0 0 0 0 0 0 0 0 0 0 0 0 0 0 0 0 0 0 0 0 0 0 0
0 0 0 0 0 0 0 0 0 0 0 0 0 0 0 0 0 0 0 0 0 0 0 0 0 0 0 0 0 0 0 0 0 0 0 0 0 0 0 0 0 0 0
0 0 0 0 0 0 0 0 0 0 0 0 0 0 0 0 0 0 0 0 0 0 0 0 0 0 0 0 0 0 0 0 0 0 0 0 0 0 0 0 0 0 0
0 0 0 0 0 0 0 0 0 0 0 0 0 0 0 0 0 0 0 0 0 0 0 0 0 0 0 0 -0 0 0 0 0 0 0 0 0 0 0 0 0 0 0
0 0 0 0 0 0 0 0 0 0 0 0 0 0 0 0 0 0 0 0 0 0 0 0 0 0 0 0 -0 0 0 0 0 0 0 0 0 0 0 0 0 0 0
Wind_Speed_500mb
19 20 18 16 22 31 40 40 32 30 28 28 29 32 34 30 23 26 31 30 24 27 32 31 34 33 33 36 43 44 46 52 51 47 49 49 50 43 46 47 52 45 66
19 19 20 25 24 31 35 35 29 25 28 31 32 29 28 34 35 33 33 28 27 27 29 31 33 37 42 45 46 48 44 49 54 50 50 39 34 38 35 38 22 19 33
20 21 23 27 31 34 33 29 24 24 26 21 19 18 15 14 10 8 12 15 18 25 29 34 36 43 47 46 48 52 53 53 55 52 46 27 30 32 26 29 30 22 23
27 23 25 28 29 31 31 27 26 26 21 15 11 8 7 6 7 14 17 20 27 26 26 26 29 34 39 42 46 50 52 51 51 48 51 49 49 40 33 50 48 50 67
40 34 32 36 33 28 28 26 19 17 13 7 1 4 5 9 15 19 22 20 18 18 20 22 25 26 27 29 31 32 32 37 41 45 48 43 44 49 43 37 44 45 59
47 46 41 38 33 28 23 18 17 16 11 5 7 9 12 17 17 20 19 20 20 23 28 31 32 33 33 34 34 33 30 28 30 30 31 31 34 28 33 41 43 49 48
45 53 50 46 44 38 27 24 17 14 13 15 19 22 24 20 17 15 17 21 25 28 29 33 39 43 45 45 42 40 39 37 35 34 32 32 32 34 37 45 48 48 48
45 61 60 50 48 43 39 30 19 20 20 16 21 22 20 17 16 19 22 24 25 28 35 41 47 52 56 51 46 45 43 41 39 38 38 37 32 32 30 31 28 38 38
47 54 55 56 56 50 39 31 29 25 22 21 18 17 18 17 15 17 20 24 29 34 38 44 51 55 52 47 45 44 45 45 46 46 46 45 39 34 31 29 31 36 46
40 48 52 59 58 51 46 40 32 28 29 26 18 11 9 8 11 18 23 28 34 39 44 50 56 57 55 53 52 52 51 50 49 47 49 47 42 41 35 31 31 34 41
40 46 49 56 57 53 46 41 35 32 32 26 18 8 3 7 12 18 24 31 37 42 47 55 58 54 55 57 59 62 64 64 64 62 60 59 56 48 41 41 38 39 42
42 50 51 60 56 48 48 42 36 33 29 19 14 10 13 16 19 25 31 38 43 46 51 57 56 59 62 64 67 73 76 78 78 74 72 71 64 62 58 49 46 44 44
42 51 58 60 56 54 45 38 34 29 23 21 19 20 22 24 27 32 39 44 46 50 52 55 59 62 66 72 77 82 87 87 80 73 69 70 66 63 56 54 52 51 51
41 44 44 43 46 43 41 37 30 27 26 26 23 26 28 32 37 40 43 46 49 53 57 62 67 72 79 84 87 82 77 73 68 65 65 64 62 61 56 51 50 51 54
39 39 38 43 40 36 33 31 31 32 28 25 27 31 36 39 41 43 47 51 55 60 67 74 80 85 89 82 75 72 65 58 52 48 48 48 48 48 49 49 45 45 48
39 43 42 40 36 32 31 31 29 24 23 25 30 36 40 42 45 49 54 60 66 73 82 87 89 86 75 66 61 56 52 49 48 45 44 46 47 45 45 47 51 51 56
41 42 39 34 31 30 26 21 19 18 23 27 35 40 44 48 54 60 68 74 81 86 84 79 72 64 56 47 45 46 44 44 45 46 47 47 44 47 46 50 50 52 52
50 44 39 34 29 21 15 12 14 18 24 31 39 47 55 62 67 72 74 77 74 70 66 58 49 43 37 37 40 41 42 43 45 46 47 49 51 47 48 48 47 49 51
46 40 32 23 13 8 4 10 18 25 34 44 51 58 65 65 66 67 67 63 59 52 44 36 33 35 34 33 36 41 42 41 45 44 46 46 46 46 44 47 51 54 56
35 29 21 11 3 8 16 24 33 39 45 52 57 57 56 58 59 56 49 46 42 38 34 33 39 32 33 36 37 38 42 43 44 50 54 55 53 51 51 52 54 56 54
22 14 6 4 13 21 28 34 40 43 47 47 47 48 49 48 43 40 37 36 35 33 34 39 38 33 35 37 35 36 40 40 47 54 56 55 55 53 50 51 56 58 57
11 8 10 17 25 31 34 36 38 40 40 42 42 41 37 34 33 33 31 30 32 35 35 38 36 35 37 39 40 40 39 38 45 54 58 57 54 54 54 57 57 54 51
13 15 18 22 25 30 32 32 35 38 38 37 35 32 29 27 28 30 30 31 33 35 37 37 39 41 42 41 44 46 38 36 41 44 46 47 47 46 45 44 41 39 40
16 19 22 25 27 29 31 33 35 34 32 31 31 30 29 27 25 26 29 32 31 31 34 38 42 44 44 41 44 40 40 37 42 51 58 55 50 49 49 46 42 38 33
17 19 20 22 23 27 30 32 33 33 31 30 30 29 29 29 28 26 27 26 23 25 31 33 38 43 41 36 36 39 41 43 46 55 58 57 59 60 57 50 44 38 35
16 16 17 20 24 27 30 31 32 33 33 32 31 31 29 28 29 31 30 25 25 21 20 25 32 34 31 35 33 34 31 34 40 53 60 60 59 62 59 57 51 44 36
Wind_Direction_500mb
203 206 218 230 205 207 216 225 226 235 239 236 244 246 260 250 247 269 281 282 283 266 274 279 281 285 286 287 285 287 292 292 293 290 291 306 303 285 275 273 271 267 271
203 208 212 221 220 209 208 214 219 220 232 234 255 252 256 261 277 293 296 292 287 276 280 284 287 286 287 284 286 289 291 288 288 285 294 300 297 299 273 261 255 264 263
212 215 230 224 229 226 218 218 215 225 234 245 256 257 250 244 260 311 326 329 311 301 295 290 282 284 287 286 284 283 282 282 282 283 284 284 279 283 239 212 234 240 279
237 229 234 229 232 229 224 225 226 230 235 235 233 223 215 239 62 38 13 359 341 328 315 305 298 292 292 290 287 284 280 279 281 282 281 278 270 269 275 268 275 263 250
219 220 225 226 230 227 220 226 228 217 200 182 98 330 346 52 42 31 14 20 24 20 14 3 355 345 335 318 307 299 294 288 284 278 277 281 274 273 252 274 264 260 247
217 214 213 218 225 213 206 194 177 154 132 82 63 46 49 62 56 50 38 34 20 12 7 1 353 345 338 334 333 329 321 313 300 293 289 281 267 261 259 253 255 260 255
210 213 210 208 206 206 193 173 166 142 100 89 87 76 72 68 52 44 30 19 17 16 8 0 354 347 336 325 319 316 314 311 306 302 298 294 288 279 268 261 260 260 265
203 204 204 203 197 188 175 169 161 141 123 106 94 76 52 41 53 56 37 23 14 4 357 350 346 341 339 329 314 308 305 301 298 294 292 290 289 288 283 274 269 270 265
204 198 195 196 187 177 171 165 150 139 130 130 109 80 57 40 31 11 4 360 353 348 345 342 339 336 332 326 317 310 306 303 301 298 293 290 287 283 279 272 267 267 268
198 188 185 182 176 171 163 155 152 142 146 147 134 110 72 43 354 341 337 336 334 333 332 333 332 330 327 328 328 327 321 314 306 302 298 294 291 287 283 277 270 264 264
189 180 173 172 170 164 157 161 160 160 166 170 168 166 277 286 298 310 314 315 316 316 320 324 325 323 322 320 320 319 318 314 309 304 299 295 293 290 284 280 274 267 264
177 169 165 167 162 164 165 167 172 175 181 187 200 226 256 273 287 298 302 304 305 310 315 319 319 317 316 315 313 312 310 308 304 300 297 294 291 285 284 281 276 269 264
170 164 162 161 164 167 169 174 181 189 198 213 223 236 249 264 278 290 292 293 297 301 305 308 307 306 306 306 306 304 304 303 299 294 290 289 287 282 279 273 271 270 271
159 150 147 155 160 168 175 182 189 198 211 222 235 252 264 273 279 285 288 292 293 295 299 301 302 304 304 303 303 302 301 300 296 292 290 291 290 288 284 280 277 275 272
137 138 138 152 163 170 178 187 200 208 217 232 248 261 269 275 282 288 290 291 293 296 299 301 302 303 303 304 304 303 302 299 298 300 300 298 295 291 287 282 279 275 274
114 122 135 146 156 166 173 182 190 201 221 242 260 270 275 282 288 291 292 293 296 298 301 303 304 306 306 306 304 302 301 300 300 302 299 296 294 293 286 281 279 279 281
109 119 129 136 142 151 161 174 192 218 245 262 270 276 283 288 291 294 295 299 302 303 304 305 305 305 306 306 303 301 301 306 308 306 306 304 297 291 287 283 281 280 277
120 118 124 129 138 147 169 199 235 255 274 281 286 290 291 293 296 299 303 304 306 309 310 309 309 309 314 311 309 311 313 312 309 308 307 304 303 299 298 296 289 285 283
118 120 126 140 145 165 228 269 284 292 292 291 292 296 298 301 304 306 307 310 312 313 314 321 322 319 321 323 324 319 315 309 312 314 311 313 312 309 303 296 290 289 287
120 129 132 132 173 279 300 303 304 304 302 301 301 302 306 307 308 310 315 315 316 320 322 326 323 322 326 327 320 314 317 321 319 319 318 317 314 311 306 298 292 287 285
115 111 106 307 314 318 322 321 317 313 311 310 310 310 311 313 316 318 320 318 319 318 320 324 328 327 325 327 332 334 332 328 324 325 326 320 314 309 304 298 292 287 283
96 57 14 354 346 337 330 327 325 322 321 320 320 320 321 322 321 323 324 321 318 320 325 325 322 325 328 338 343 340 340 340 333 330 326 324 320 314 306 299 294 288 284
53 28 8 354 347 344 342 339 334 332 332 333 334 334 334 333 330 328 324 326 326 324 323 319 320 332 337 340 343 346 346 345 342 341 344 345 342 340 342 342 319 294 280
40 25 17 10 3 359 355 351 346 343 346 347 348 345 343 340 337 334 334 328 327 325 323 323 329 331 335 342 342 344 348 347 347 345 343 343 344 344 339 332 333 331 311
49 33 23 19 14 11 8 4 360 358 359 358 352 350 351 348 347 347 339 333 333 321 318 322 320 322 330 338 339 341 342 340 340 339 346 348 352 352 349 344 335 323 314
62 48 37 29 24 21 18 14 12 10 8 7 4 3 359 358 357 352 357 3 349 334 322 316 314 319 326 327 335 340 339 340 339 348 353 355 352 352 350 350 343 333 320
Wind_Speed_850mb
19 20 18 16 22 31 40 40 32 30 28 28 29 32 34 30 23 26 31 30 24 27 32 31 34 33 33 36 43 44 46 52 51 47 49 49 50 43 46 47 52 45 66
19 19 20 25 24 31 35 35 29 25 28 31 32 29 28 34 35 33 33 28 27 27 29 31 33 37 42 45 46 48 44 49 54 50 50 39 34 38 35 38 22 19 33
20 21 23 27 31 34 33 29 24 24 26 21 19 18 15 14 10 8 12 15 18 25 29 34 36 43 47 46 48 52 53 53 55 52 46 27 30 32 26 29 30 22 23
27 23 25 28 29 31 31 27 26 26 21 15 11 8 7 6 7 14 17 20 27 26 26 26 29 34 39 42 46 50 52 51 51 48 51 49 49 40 33 50 48 50 67
40 34 32 36 33 28 28 26 19 17 13 7 1 4 5 9 15 19 22 20 18 18 20 22 25 26 27 29 31 32 32 37 41 45 48 43 44 49 43 37 44 45 59
47 46 41 38 33 28 23 18 17 16 11 5 7 9 12 17 17 20 19 20 20 23 28 31 32 33 33 34 34 33 30 28 30 30 31 31 34 28 33 41 43 49 48
45 53 50 46 44 38 27 24 17 14 13 15 19 22 24 20 17 15 17 21 25 28 29 33 39 43 45 45 42 40 39 37 35 34 32 32 32 34 37 45 48 48 48
45 61 60 50 48 43 39 30 19 20 20 16 21 22 20 17 16 19 22 24 25 28 35 41 47 52 56 51 46 45 43 41 39 38 38 37 32 32 30 31 28 38 38
47 54 55 56 56 50 39 31 29 25 22 21 18 17 18 17 15 17 20 24 29 34 38 44 51 55 52 47 45 44 45 45 46 46 46 45 39 34 31 29 31 36 46
40 48 52 59 58 51 46 40 32 28 29 26 18 11 9 8 11 18 23 28 34 39 44 50 56 57 55 53 52 52 51 50 49 47 49 47 42 41 35 31 31 34 41
40 46 49 56 57 53 46 41 35 32 32 26 18 8 3 7 12 18 24 31 37 42 47 55 58 54 55 57 59 62 64 64 64 62 60 59 56 48 41 41 38 39 42
42 50 51 60 56 48 48 42 36 33 29 19 14 10 13 16 19 25 31 38 43 46 51 57 56 59 62 64 67 73 76 78 78 74 72 71 64 62 58 49 46 44 44
42 51 58 60 56 54 45 38 34 29 23 21 19 20 22 24 27 32 39 44 46 50 52 55 59 62 66 72 77 82 87 87 80 73 69 70 66 63 56 54 52 51 51
41 44 44 43 46 43 41 37 30 27 26 26 23 26 28 32 37 40 43 46 49 53 57 62 67 72 79 84 87 82 77 73 68 65 65 64 62 61 56 51 50 51 54
39 39 38 43 40 36 33 31 31 32 28 25 27 31 36 39 41 43 47 51 55 60 67 74 80 85 89 82 75 72 65 58 52 48 48 48 48 48 49 49 45 45 48
39 43 42 40 36 32 31 31 29 24 23 25 30 36 40 42 45 49 54 60 66 73 82 87 89 86 75 66 61 56 52 49 48 45 44 46 47 45 45 47 51 51 56
41 42 39 34 31 30 26 21 19 18 23 27 35 40 44 48 54 60 68 74 81 86 84 79 72 64 56 47 45 46 44 44 45 46 47 47 44 47 46 50 50 52 52
50 44 39 34 29 21 15 12 14 18 24 31 39 47 55 62 67 72 74 77 74 70 66 58 49 43 37 37 40 41 42 43 45 46 47 49 51 47 48 48 47 49 51
46 40 32 23 13 8 4 10 18 25 34 44 51 58 65 65 66 67 67 63 59 52 44 36 33 35 34 33 36 41 42 41 45 44 46 46 46 46 44 47 51 54 56
35 29 21 11 3 8 16 24 33 39 45 52 57 57 56 58 59 56 49 46 42 38 34 33 39 32 33 36 37 38 42 43 44 50 54 55 53 51 51 52 54 56 54
22 14 6 4 13 21 28 34 40 43 47 47 47 48 49 48 43 40 37 36 35 33 34 39 38 33 35 37 35 36 40 40 47 54 56 55 55 53 50 51 56 58 57
11 8 10 17 25 31 34 36 38 40 40 42 42 41 37 34 33 33 31 30 32 35 35 38 36 35 37 39 40 40 39 38 45 54 58 57 54 54 54 57 57 54 51
13 15 18 22 25 30 32 32 35 38 38 37 35 32 29 27 28 30 30 31 33 35 37 37 39 41 42 41 44 46 38 36 41 44 46 47 47 46 45 44 41 39 40
16 19 22 25 27 29 31 33 35 34 32 31 31 30 29 27 25 26 29 32 31 31 34 38 42 44 44 41 44 40 40 37 42 51 58 55 50 49 49 46 42 38 33
17 19 20 22 23 27 30 32 33 33 31 30 30 29 29 29 28 26 27 26 23 25 31 33 38 43 41 36 36 39 41 43 46 55 58 57 59 60 57 50 44 38 35
16 16 17 20 24 27 30 31 32 33 33 32 31 31 29 28 29 31 30 25 25 21 20 25 32 34 31 35 33 34 31 34 40 53 60 60 59 62 59 57 51 44 36
Wind_Direction_850mb
203 206 218 230 205 207 216 225 226 235 239 236 244 246 260 250 247 269 281 282 283 266 274 279 281 285 286 287 285 287 292 292 293 290 291 306 303 285 275 273 271 267 271
203 208 212 221 220 209 208 214 219 220 232 234 255 252 256 261 277 293 296 292 287 276 280 284 287 286 287 284 286 289 291 288 288 285 294 300 297 299 273 261 255 264 263
212 215 230 224 229 226 218 218 215 225 234 245 256 257 250 244 260 311 326 329 311 301 295 290 282 284 287 286 284 283 282 282 282 283 284 284 279 283 239 212 234 240 279
237 229 234 229 232 229 224 225 226 230 235 235 233 223 215 239 62 38 13 359 341 328 315 305 298 292 292 290 287 284 280 279 281 282 281 278 270 269 275 268 275 263 250
219 220 225 226 230 227 220 226 228 217 200 182 98 330 346 52 42 31 14 20 24 20 14 3 355 345 335 318 307 299 294 288 284 278 277 281 274 273 252 274 264 260 247
217 214 213 218 225 213 206 194 177 154 132 82 63 46 49 62 56 50 38 34 20 12 7 1 353 345 338 334 333 329 321 313 300 293 289 281 267 261 259 253 255 260 255
210 213 210 208 206 206 193 173 166 142 100 89 87 76 72 68 52 44 30 19 17 16 8 0 354 347 336 325 319 316 314 311 306 302 298 294 288 279 268 261 260 260 265
203 204 204 203 197 188 175 169 161 141 123 106 94 76 52 41 53 56 37 23 14 4 357 350 346 341 339 329 314 308 305 301 298 294 292 290 289 288 283 274 269 270 265
204 198 195 196 187 177 171 165 150 139 130 130 109 80 57 40 31 11 4 360 353 348 345 342 339 336 332 326 317 310 306 303 301 298 293 290 287 283 279 272 267 267 268
198 188 185 182 176 171 163 155 152 142 146 147 134 110 72 43 354 341 337 336 334 333 332 333 332 330 327 328 328 327 321 314 306 302 298 294 291 287 283 277 270 264 264
189 180 173 172 170 164 157 161 160 160 166 170 168 166 277 286 298 310 314 315 316 316 320 324 325 323 322 320 320 319 318 314 309 304 299 295 293 290 284 280 274 267 264
177 169 165 167 162 164 165 167 172 175 181 187 200 226 256 273 287 298 302 304 305 310 315 319 319 317 316 315 313 312 310 308 304 300 297 294 291 285 284 281 276 269 264
170 164 162 161 164 167 169 174 181 189 198 213 223 236 249 264 278 290 292 293 297 301 305 308 307 306 306 306 306 304 304 303 299 294 290 289 287 282 279 273 271 270 271
159 150 147 155 160 168 175 182 189 198 211 222 235 252 264 273 279 285 288 292 293 295 299 301 302 304 304 303 303 302 301 300 296 292 290 291 290 288 284 280 277 275 272
137 138 138 152 163 170 178 187 200 208 217 232 248 261 269 275 282 288 290 291 293 296 299 301 302 303 303 304 304 303 302 299 298 300 300 298 295 291 287 282 279 275 274
114 122 135 146 156 166 173 182 190 201 221 242 260 270 275 282 288 291 292 293 296 298 301 303 304 306 306 306 304 302 301 300 300 302 299 296 294 293 286 281 279 279 281
109 119 129 136 142 151 161 174 192 218 245 262 270 276 283 288 291 294 295 299 302 303 304 305 305 305 306 306 303 301 301 306 308 306 306 304 297 291 287 283 281 280 277
120 118 124 129 138 147 169 199 235 255 274 281 286 290 291 293 296 299 303 304 306 309 310 309 309 309 314 311 309 311 313 312 309 308 307 304 303 299 298 296 289 285 283
118 120 126 140 145 165 228 269 284 292 292 291 292 296 298 301 304 306 307 310 312 313 314 321 322 319 321 323 324 319 315 309 312 314 311 313 312 309 303 296 290 289 287
120 129 132 132 173 279 300 303 304 304 302 301 301 302 306 307 308 310 315 315 316 320 322 326 323 322 326 327 320 314 317 321 319 319 318 317 314 311 306 298 292 287 285
115 111 106 307 314 318 322 321 317 313 311 310 310 310 311 313 316 318 320 318 319 318 320 324 328 327 325 327 332 334 332 328 324 325 326 320 314 309 304 298 292 287 283
96 57 14 354 346 337 330 327 325 322 321 320 320 320 321 322 321 323 324 321 318 320 325 325 322 325 328 338 343 340 340 340 333 330 326 324 320 314 306 299 294 288 284
53 28 8 354 347 344 342 339 334 332 332 333 334 334 334 333 330 328 324 326 326 324 323 319 320 332 337 340 343 346 346 345 342 341 344 345 342 340 342 342 319 294 280
40 25 17 10 3 359 355 351 346 343 346 347 348 345 343 340 337 334 334 328 327 325 323 323 329 331 335 342 342 344 348 347 347 345 343 343 344 344 339 332 333 331 311
49 33 23 19 14 11 8 4 360 358 359 358 352 350 351 348 347 347 339 333 333 321 318 322 320 322 330 338 339 341 342 340 340 339 346 348 352 352 349 344 335 323 314
62 48 37 29 24 21 18 14 12 10 8 7 4 3 359 358 357 352 357 3 349 334 322 316 314 319 326 327 335 340 339 340 339 348 353 355 352 352 350 350 343 333 320